Lexington, KY

3:59 AM EDT on March 28, 2017 (GMT -0400)
Blue Grass

Weather History for KLEX - February, 2013

Change the Weather History Date:

Monday, February 4, 2013

  Actual Average Record
Temperature  
Mean Temperature 29 °F 34 °F  
Max Temperature 45 °F 43 °F 70 °F (1962)
Min Temperature 13 °F 26 °F -10 °F (1996)
Degree Days  
Heating Degree Days 36 31  
Month to date heating degree days 169 124  
Since 1 July heating degree days 2848 2907  
Cooling Degree Days 0 0  
Month to date cooling degree days 0 0  
Year to date cooling degree days 0 0  
Moisture  
Dew Point 26 °F    
Average Humidity 76    
Maximum Humidity 93    
Minimum Humidity 59    
Precipitation  
Precipitation 0.09 in 0.12 in 1.85 in (1997)
Month to date precipitation 0.24 0.47  
Year to date precipitation 4.70 3.67  
Snow  
Snow 0.00 in 0.20 in 11.00 in (1998)
Month to date snowfall 2.4 0.8  
Since 1 July snowfall 8.3 7.5  
Snow Depth 1.00 in    
Sea Level Pressure  
Sea Level Pressure 29.99 in    
Wind  
Wind Speed 9 mph (SSW)    
Max Wind Speed 20 mph    
Max Gust Speed 25 mph    
Visibility 10 miles    
Events Rain    
T = Trace of Precipitation, MM = Missing Value Source: NWS Daily Summary

Daily Weather History Graph

Daily Weather History Graph

Search for Another Location

Airport or City:

Trip Planner

Search our weather history database for the weather conditions in past years. The results will help you decide how hot, cold, wet, or windy it might be!

Date:

Astronomy

Feb. 04, 2013 Rise Set
Actual Time 7:40 AM EST 6:05 PM EST
Civil Twilight 7:12 AM EST 6:32 PM EST
Nautical Twilight 6:41 AM EST 7:04 PM EST
Astronomical Twilight 6:10 AM EST 7:35 PM EST
Moon 2:13 AM EST (2/4) 12:29 PM EST (2/4)
Length of Visible Light 11h 20m
Length of Day
10h 25m
Last Quarter, 37% of the Moon is Illuminated
Feb 4
Last Quarter
Feb 10
New
Feb 17
First Quarter
Feb 25
Full
Mar 4
Last Quarter

Hourly Weather History & Observations

Time (EST) Temp. Windchill Dew Point Humidity Pressure Visibility Wind Dir Wind Speed Gust Speed Precip Events Conditions
12:54 AM 19.9 °F 14.9 °F 18.0 °F 92% 30.16 in 10.0 mi SSW 3.5 mph - N/A   Clear
1:54 AM 19.0 °F - 15.1 °F 85% 30.13 in 10.0 mi Calm Calm - N/A   Clear
2:54 AM 18.0 °F - 15.1 °F 88% 30.16 in 10.0 mi Calm Calm - N/A   Clear
3:54 AM 17.1 °F 10.0 °F 15.1 °F 92% 30.12 in 10.0 mi SSE 4.6 mph - N/A   Clear
5:54 AM 15.1 °F - 12.0 °F 88% 30.14 in 9.0 mi Calm Calm - N/A   Clear
6:54 AM 17.1 °F 7.6 °F 15.1 °F 92% 30.11 in 10.0 mi SE 6.9 mph - N/A   Mostly Cloudy
7:54 AM 19.9 °F 11.1 °F 17.1 °F 89% 30.09 in 9.0 mi SE 6.9 mph - N/A   Overcast
8:54 AM 24.1 °F 13.1 °F 19.0 °F 81% 30.07 in 10.0 mi SSE 11.5 mph - N/A   Overcast
9:54 AM 28.0 °F 17.0 °F 21.9 °F 78% 30.05 in 10.0 mi South 13.8 mph - N/A   Scattered Clouds
10:54 AM 30.0 °F 17.5 °F 24.1 °F 79% 30.01 in 10.0 mi South 19.6 mph 25.3 mph N/A   Overcast
11:54 AM 33.1 °F 22.6 °F 24.1 °F 70% 29.98 in 10.0 mi South 16.1 mph - N/A   Mostly Cloudy
12:54 PM 37.0 °F 28.9 °F 25.0 °F 62% 29.94 in 10.0 mi SSW 12.7 mph - N/A   Overcast
1:54 PM 37.9 °F 30.5 °F 27.0 °F 65% 29.90 in 10.0 mi South 11.5 mph - N/A   Overcast
2:54 PM 39.9 °F 33.4 °F 28.0 °F 63% 29.87 in 10.0 mi South 10.4 mph - N/A   Overcast
3:54 PM 43.0 °F 38.8 °F 30.9 °F 62% 29.87 in 10.0 mi SSW 6.9 mph - N/A   Overcast
4:54 PM 45.0 °F 39.7 °F 30.9 °F 58% 29.88 in 10.0 mi WSW 10.4 mph - 0.00 in Rain Light Rain
5:54 PM 44.1 °F 37.1 °F 32.0 °F 63% 29.88 in 10.0 mi West 15.0 mph 20.7 mph 0.00 in Rain Light Rain
6:29 PM 42.8 °F 34.8 °F 33.8 °F 70% 29.87 in 10.0 mi West 17.3 mph 25.3 mph 0.01 in Rain Light Rain
6:54 PM 42.1 °F 36.1 °F 35.1 °F 76% 29.90 in 10.0 mi WSW 10.4 mph - 0.01 in Rain Light Rain
7:41 PM 41.0 °F 35.2 °F 37.4 °F 87% 29.88 in 10.0 mi SW 9.2 mph - 0.04 in Rain Light Rain
7:54 PM 41.0 °F 34.3 °F 37.9 °F 89% 29.90 in 8.0 mi SW 11.5 mph - 0.05 in Rain Light Rain
8:54 PM 41.0 °F 34.7 °F 39.0 °F 93% 29.90 in 10.0 mi SSW 10.4 mph - 0.03 in   Overcast
9:54 PM 41.0 °F 34.3 °F 39.9 °F 96% 29.91 in 10.0 mi WSW 11.5 mph - N/A   Overcast
10:54 PM 42.1 °F 36.6 °F 39.9 °F 92% 29.91 in 10.0 mi WSW 9.2 mph - N/A   Overcast
11:54 PM 42.1 °F 37.7 °F 39.9 °F 92% 29.90 in 10.0 mi WSW 6.9 mph - N/A   Overcast